Location: Fayetteville
(35.0530°N, 78.8790°W)
Time: 09:28:31
(UTC-04:00)

ISS - Visible Passes

Search period start: 21 October 2014 00:00
Search period end: 31 October 2014 00:00
Orbit: 413 x 416 km, 51.6° (Epoch: 20 October)

Date Brightness Start Highest point End Pass type
(mag) Time Alt. Az. Time Alt. Az. Time Alt. Az.
21 Oct -0.3 20:31:56 10° NNW 20:31:58 10° NNW 20:31:58 10° NNW visible
22 Oct -1.0 19:43:29 10° N 19:45:00 13° NNE 19:45:00 13° NNE visible
23 Oct -0.8 20:29:56 10° NW 20:30:57 18° NNW 20:30:57 18° NNW visible
24 Oct -2.2 19:41:03 10° NNW 19:44:00 28° NE 19:44:08 28° NE visible
25 Oct -1.5 18:52:18 10° NNW 18:54:41 18° NNE 18:57:03 10° ENE visible
25 Oct -1.4 20:28:19 10° WNW 20:30:19 30° W 20:30:19 30° W visible
26 Oct -3.4 19:39:03 10° NW 19:42:23 84° NE 19:43:47 32° SE visible
27 Oct -2.8 18:49:56 10° NW 18:53:08 42° NE 18:56:19 10° ESE visible
27 Oct -0.5 20:27:35 10° W 20:29:32 15° SW 20:30:25 14° SW visible
28 Oct -1.2 19:37:31 10° WNW 19:40:25 28° SW 19:43:18 10° SSE visible
29 Oct -2.6 18:47:56 10° NW 18:51:13 57° SW 18:54:28 10° SE visible
